Mpanda Airport

Jump to: basic info | weather | comments

Related pages: nearby airports | nearby navaids | notams | map

Basic information (top)

Codes: HTMP
Location: lon -6.350000, lat 31.083000, elev 3,520 ft / 1,073 m msl
Status: small_airport

Weather (top)

Current conditions for Sumbawanga Airport 103nm (191km) SSE (rec'd 2014/10/16 06:00Z):

HTSU 160600Z 15006KT 9999 SCT018 BKN210 22/11 Q1022

Airport forecast for Julius Nyerere International Airport 485nm (899km) E (rec'd 2014/10/22 06:00Z):

TAF HTDA 220300Z 2206/2312 18005KT 9999 BKN026 FEW028CB PROB30 
      TEMPO 2209/2212 18015KT SHRA FM 221500 12010KT SCT023 FEW024CB 
      TEMPO 2303/2306 00000KT 3000 MIFG SCT022 
      BECMG 2309/2312 15010KT 9999 BKN027

Latest comments (top)

re: Uwanja wa ndege Mpanda: Thanks God Mpanda is on the right path, ... [read]

Uwanja wa ndege Mpanda: Uwanja ni mzuri saana, [read]

matengenezo: uwanja ukikamilika utakuwa mzuri.mmejitahidi. [read]

More... (top)

See also NOTAMs and nearby airports and navaids, or visit the Mpanda Airport page at the main OurAirports website..